When you browse on this site, cookies collect data to enhance your experience and personalize the content and advertising you see.
Visit our Privacy Policy to learn more. By continuing to use the site, you agree to this use of cookies and data.
  • în România
  • Lista ţărilor
  • Pe 7 zile
  • Temperatura apei
  • Hartă satelitară
  • Meteo pe hartă
  • Widget-uri
  • user-avatar
    Intrare

    Meteo pe oră la Martigues

    Astăzi, 19 Aprilie, Vineri

    Timp Temperatura Precipitaţii Vânt Presiune Umiditate
    00:00 +17°C° 0 mm 4 m/s 763 mmHg 39%
    01:00 +17°C° 0 mm 4 m/s 764 mmHg 42%
    02:00 +16°C° 0 mm 5 m/s 764 mmHg 44%
    03:00 +16°C° 0 mm 5 m/s 764 mmHg 47%
    04:00 +16°C° 0 mm 5 m/s 764 mmHg 49%
    05:00 +16°C° 0 mm 5 m/s 764 mmHg 50%
    06:00 +16°C° 0 mm 6 m/s 765 mmHg 51%
    07:00 +19°C° 0 mm 6 m/s 765 mmHg 43%
    08:00 +20°C° 0 mm 7 m/s 765 mmHg 35%
    09:00 +22°C° 0 mm 8 m/s 765 mmHg 27%
    10:00 +23°C° 0 mm 8 m/s 766 mmHg 25%
    11:00 +24°C° 0 mm 8 m/s 766 mmHg 24%
    12:00 +24°C° 0 mm 9 m/s 766 mmHg 22%
    13:00 +24°C° 0 mm 8 m/s 766 mmHg 23%
    14:00 +24°C° 0 mm 8 m/s 766 mmHg 24%
    15:00 +24°C° 0 mm 8 m/s 766 mmHg 25%
    16:00 +23°C° 0 mm 7 m/s 766 mmHg 27%
    17:00 +22°C° 0 mm 7 m/s 766 mmHg 29%
    18:00 +21°C° 0 mm 6 m/s 766 mmHg 32%
    19:00 +20°C° 0 mm 5 m/s 766 mmHg 34%
    20:00 +19°C° 0 mm 4 m/s 766 mmHg 36%
    21:00 +19°C° 0 mm 3 m/s 767 mmHg 38%
    22:00 +18°C° 0 mm 3 m/s 767 mmHg 40%
    23:00 +18°C° 0 mm 3 m/s 767 mmHg 42%

    Mâine, 20 Aprilie, Sâmbătă

    Timp Temperatura Precipitaţii Vânt Presiune Umiditate
    00:00 +17°C° 0 mm 3 m/s 766 mmHg 44%
    01:00 +17°C° 0 mm 3 m/s 766 mmHg 45%
    02:00 +16°C° 0 mm 2 m/s 766 mmHg 45%
    03:00 +16°C° 0 mm 2 m/s 766 mmHg 46%
    04:00 +16°C° 0 mm 2 m/s 766 mmHg 47%
    05:00 +16°C° 0 mm 2 m/s 765 mmHg 48%
    06:00 +16°C° 0 mm 2 m/s 765 mmHg 48%
    07:00 +18°C° 0 mm 3 m/s 765 mmHg 42%
    08:00 +20°C° 0 mm 4 m/s 765 mmHg 36%
    09:00 +21°C° 0 mm 4 m/s 765 mmHg 30%
    10:00 +23°C° 0 mm 4 m/s 765 mmHg 28%
    11:00 +25°C° 0 mm 5 m/s 764 mmHg 25%
    12:00 +26°C° 0 mm 5 m/s 764 mmHg 22%
    13:00 +26°C° 0 mm 6 m/s 764 mmHg 22%
    14:00 +26°C° 0 mm 7 m/s 763 mmHg 23%
    15:00 +26°C° 0 mm 7 m/s 763 mmHg 23%
    16:00 +24°C° 0 mm 7 m/s 763 mmHg 25%
    17:00 +23°C° 0 mm 7 m/s 763 mmHg 28%
    18:00 +22°C° 0 mm 7 m/s 763 mmHg 30%
    19:00 +21°C° 0 mm 7 m/s 763 mmHg 32%
    20:00 +21°C° 0 mm 6 m/s 763 mmHg 34%
    21:00 +20°C° 0 mm 5 m/s 763 mmHg 35%
    22:00 +20°C° 0 mm 4 m/s 763 mmHg 37%
    23:00 +19°C° 0 mm 3 m/s 763 mmHg 39%

    Poimâine, 21 Aprilie, Duminică

    Timp Temperatura Precipitaţii Vânt Presiune Umiditate
    00:00 +20°C° 0 mm 1 m/s 763 mmHg 41%
    01:00 +19°C° 0 mm 2 m/s 762 mmHg 41%
    02:00 +18°C° 0 mm 2 m/s 762 mmHg 42%
    03:00 +18°C° 0 mm 2 m/s 761 mmHg 43%
    04:00 +18°C° 0 mm 3 m/s 761 mmHg 43%
    05:00 +17°C° 0 mm 5 m/s 761 mmHg 43%
    06:00 +19°C° 0 mm 6 m/s 761 mmHg 43%
    07:00 +19°C° 0 mm 6 m/s 761 mmHg 39%
    08:00 +20°C° 0 mm 7 m/s 761 mmHg 35%
    09:00 +20°C° 0 mm 7 m/s 761 mmHg 32%
    10:00 +20°C° 0 mm 7 m/s 760 mmHg 33%
    11:00 +20°C° 0 mm 6 m/s 760 mmHg 34%
    12:00 +20°C° 0 mm 6 m/s 760 mmHg 35%
    13:00 +21°C° 0 mm 5 m/s 759 mmHg 34%
    14:00 +22°C° 0 mm 4 m/s 759 mmHg 33%
    15:00 +22°C° 0 mm 3 m/s 758 mmHg 32%
    16:00 +22°C° 0 mm 3 m/s 758 mmHg 34%
    17:00 +22°C° 0 mm 3 m/s 757 mmHg 35%
    18:00 +21°C° 0 mm 2 m/s 757 mmHg 37%
    19:00 +20°C° 0 mm 3 m/s 757 mmHg 38%
    20:00 +19°C° 0 mm 3 m/s 757 mmHg 40%
    21:00 +19°C° 0 mm 3 m/s 757 mmHg 42%
    22:00 +18°C° 0 mm 3 m/s 756 mmHg 43%
    23:00 +18°C° 0 mm 4 m/s 755 mmHg 44%

    22 Aprilie, Luni

    Timp Temperatura Precipitaţii Vânt Presiune Umiditate
    00:00 +17°C° 0 mm 4 m/s 755 mmHg 44%
    01:00 +17°C° 0 mm 4 m/s 754 mmHg 44%
    02:00 +17°C° 0 mm 4 m/s 753 mmHg 45%
    03:00 +15°C° 0 mm 4 m/s 752 mmHg 45%
    04:00 +17°C° 0 mm 4 m/s 752 mmHg 44%
    05:00 +17°C° 0 mm 4 m/s 751 mmHg 43%
    06:00 +17°C° 0 mm 4 m/s 751 mmHg 43%
    07:00 +18°C° 0 mm 4 m/s 751 mmHg 39%
    08:00 +20°C° 0 mm 4 m/s 750 mmHg 34%
    09:00 +22°C° 0 mm 5 m/s 750 mmHg 30%
    10:00 +23°C° 0 mm 6 m/s 749 mmHg 27%
    11:00 +26°C° 0 mm 7 m/s 748 mmHg 23%
    12:00 +28°C° 0 mm 8 m/s 748 mmHg 20%
    13:00 +27°C° 0 mm 9 m/s 747 mmHg 21%
    14:00 +27°C° 0 mm 10 m/s 747 mmHg 21%
    15:00 +26°C° 0 mm 10 m/s 746 mmHg 22%
    16:00 +24°C° 0 mm 10 m/s 746 mmHg 25%
    17:00 +23°C° 0 mm 10 m/s 746 mmHg 29%
    18:00 +22°C° 0 mm 9 m/s 746 mmHg 32%
    19:00 +22°C° 0.1 mm 8 m/s 746 mmHg 33%
    20:00 +21°C° 0.1 mm 7 m/s 746 mmHg 34%
    21:00 +21°C° 0.1 mm 5 m/s 747 mmHg 36%
    22:00 +20°C° 0 mm 4 m/s 746 mmHg 38%
    23:00 +20°C° 0 mm 3 m/s 746 mmHg 41%

    23 Aprilie, Marţi

    Timp Temperatura Precipitaţii Vânt Presiune Umiditate
    00:00 +19°C° 0 mm 3 m/s 746 mmHg 44%
    01:00 +19°C° 0 mm 2 m/s 746 mmHg 46%
    02:00 +18°C° 0 mm 2 m/s 745 mmHg 49%
    03:00 +18°C° 0 mm 2 m/s 745 mmHg 52%
    04:00 +17°C° 0 mm 2 m/s 745 mmHg 56%
    05:00 +17°C° 0 mm 2 m/s 746 mmHg 61%
    06:00 +17°C° 0 mm 2 m/s 746 mmHg 65%
    07:00 +18°C° 0 mm 2 m/s 746 mmHg 61%
    08:00 +20°C° 0 mm 1 m/s 746 mmHg 56%
    09:00 +21°C° 0 mm 1 m/s 747 mmHg 52%
    10:00 +21°C° 0 mm 3 m/s 747 mmHg 50%
    11:00 +21°C° 0 mm 5 m/s 747 mmHg 49%
    12:00 +22°C° 0 mm 7 m/s 748 mmHg 47%
    13:00 +22°C° 0 mm 7 m/s 748 mmHg 50%
    14:00 +21°C° 0 mm 7 m/s 748 mmHg 52%
    15:00 +21°C° 0 mm 8 m/s 748 mmHg 55%
    16:00 +20°C° 0 mm 8 m/s 748 mmHg 60%
    17:00 +20°C° 0 mm 8 m/s 749 mmHg 66%
    18:00 +18°C° 0 mm 7 m/s 749 mmHg 71%
    19:00 +17°C° 0 mm 7 m/s 750 mmHg 72%
    20:00 +17°C° 0 mm 8 m/s 751 mmHg 74%
    21:00 +17°C° 0 mm 8 m/s 752 mmHg 75%
    22:00 +17°C° 0 mm 8 m/s 752 mmHg 76%
    23:00 +16°C° 0 mm 8 m/s 752 mmHg 77%

    24 Aprilie, Miercuri

    Timp Temperatura Precipitaţii Vânt Presiune Umiditate
    00:00 +16°C° 0 mm 8 m/s 752 mmHg 78%
    01:00 +16°C° 0 mm 8 m/s 753 mmHg 78%
    02:00 +16°C° 0 mm 8 m/s 753 mmHg 78%
    03:00 +16°C° 0 mm 9 m/s 753 mmHg 78%
    04:00 +16°C° 0 mm 8 m/s 753 mmHg 77%
    05:00 +16°C° 0 mm 8 m/s 754 mmHg 75%
    06:00 +16°C° 0 mm 8 m/s 754 mmHg 74%
    07:00 +17°C° 0.1 mm 8 m/s 754 mmHg 70%
    08:00 +17°C° 0.1 mm 8 m/s 755 mmHg 66%
    09:00 +18°C° 0.1 mm 8 m/s 755 mmHg 62%
    10:00 +21°C° 0 mm 9 m/s 755 mmHg 54%
    11:00 +22°C° 0 mm 9 m/s 754 mmHg 47%
    12:00 +24°C° 0 mm 9 m/s 754 mmHg 39%
    13:00 +24°C° 0 mm 9 m/s 754 mmHg 36%
    14:00 +26°C° 0 mm 9 m/s 754 mmHg 34%
    15:00 +26°C° 0 mm 10 m/s 753 mmHg 31%
    16:00 +24°C° 0 mm 9 m/s 753 mmHg 33%
    17:00 +23°C° 0 mm 9 m/s 753 mmHg 35%
    18:00 +23°C° 0 mm 9 m/s 753 mmHg 37%
    19:00 +22°C° 0 mm 10 m/s 753 mmHg 38%
    20:00 +22°C° 0 mm 10 m/s 753 mmHg 40%
    21:00 +22°C° 0 mm 11 m/s 753 mmHg 41%
    22:00 +21°C° 0.4 mm 11 m/s 753 mmHg 47%
    23:00 +19°C° 0.4 mm 12 m/s 753 mmHg 54%
    Arată mai mult